Home   Weather   Aurillac   Past weeks

Flag for France Past Weather in Aurillac, Auvergne, France — Yesterday and Last 2 Weeks

Now
51 °F

Cool.


Feels Like: 49 °F
Forecast: 41 / 75 °F
Wind: 6 mph from East

Location: Aurillac

Current Time: Sep 29, 2016 at 12:20:30 AM

Latest Report: Sep 28, 2016 at 11:00 PM


Visibility: 12 mi

Pressure: 30.44 "Hg (28.22 "Hg at 627m altitude)

Humidity: 87%

Dew Point: 48 °F

Location of AurillacLocation

Past Weather in Aurillac — Graph

°F

Aurillac Temperature Yesterday

Maximum temperature yesterday: 73 °F (at 4:00 PM)
Minimum temperature yesterday: 41 °F (at 7:00 AM)
Average temperature yesterday: 56 °F

High & Low Weather Summary for the Past Weeks

 TemperatureHumidityPressure
High74 °F (Sep 24, 4:00 PM)100% (Sep 26, 9:00 AM)30.49 "Hg (Sep 26, 9:00 AM)
Low41 °F (Sep 27, 8:00 AM)37% (Sep 27, 3:00 PM)29.81 "Hg (Sep 14, 5:00 PM)
Average56 °F79%30.13 "Hg
* Reported Sep 13 11:00 PM — Sep 28 11:00 PM, Aurillac, Weather by CustomWeather, © 2016

Note: Actual official high and low records may vary slightly from our data, if they occured in-between our weather recording intervals... More about our weather records

Advertising

Aurillac Weather History for the Previous 24 Hours

Scroll right to see more
 ConditionsComfort  
Time TempWeatherWind HumidityBarometerVisibility
11:00 PM
Wed, Sep 28
51 °FCool.6 mph87%30.44 "Hg12 mi
10:00 PM54 °FCool.5 mph80%30.43 "Hg34 mi
9:00 PM59 °FCool.6 mph68%30.40 "Hg37 mi
8:00 PM63 °FMild.No wind58%30.38 "Hg34 mi
7:00 PM70 °FMild.3 mph47%30.35 "Hg37 mi
6:00 PM72 °FMild.3 mph41%30.34 "Hg37 mi
5:00 PM73 °FMild.3 mph40%30.33 "Hg34 mi
4:00 PM73 °FMild.2 mph39%30.34 "Hg12 mi
3:00 PM72 °FMild.3 mph40%30.36 "Hg12 mi
2:00 PM71 °FMild.3 mph40%30.38 "Hg11 mi
1:00 PM69 °FMild.2 mph44%30.39 "Hg11 mi
12:00 PM66 °FMild.2 mph50%30.42 "Hg12 mi
11:00 AM63 °FMild.No wind51%30.43 "Hg12 mi
10:00 AM53 °FCool.5 mph67%30.47 "Hg12 mi
9:00 AM48 °FCool.1 mph77%30.48 "Hg34 mi
8:00 AM42 °FQuite cool.5 mph91%30.49 "Hg10 mi
7:00 AM41 °FQuite cool.5 mph94%30.48 "Hg34 mi
6:00 AM42 °FQuite cool.3 mph94%30.48 "Hg12 mi
5:00 AM44 °FQuite cool.1 mph92%30.46 "Hg7 mi
4:00 AM44 °FQuite cool.3 mph93%30.45 "Hg10 mi
3:00 AM45 °FCool.2 mph94%30.45 "Hg5 mi
2:00 AM46 °FCool.5 mph91%30.44 "Hg12 mi
1:00 AM47 °FCool.2 mph90%30.43 "Hg10 mi
12:00 AM48 °FCool.5 mph85%30.42 "Hg28 mi
Weather by CustomWeather, © 2016

See weather overviewHow to use our weather pages